Springfield, MO

4:00 AM CDT on May 28, 2017 (GMT -0500)
Springfield-Branson Regional

Weather History for KSGF - May, 2013

Change the Weather History Date:

Saturday, May 25, 2013

  Actual Average Record
Temperature  
Mean Temperature 68 °F 67 °F  
Max Temperature 80 °F 78 °F 90 °F (1962)
Min Temperature 56 °F 57 °F 35 °F (1925)
Degree Days  
Heating Degree Days 0 2  
Month to date heating degree days 142 87  
Since 1 July heating degree days 4494 4561  
Cooling Degree Days 3 4  
Month to date cooling degree days 56 61  
Year to date cooling degree days 73 86  
Growing Degree Days 18 (Base 50)    
Moisture  
Dew Point 54 °F    
Average Humidity 64    
Maximum Humidity 73    
Minimum Humidity 54    
Precipitation  
Precipitation T in 0.14 in 1.56 in (1968)
Month to date precipitation 3.33 4.20  
Year to date precipitation 19.08 17.13  
Snow  
Snow 0.00 in - - ()
Month to date snowfall 1.4  
Since 1 July snowfall 12.7  
Snow Depth 0.00 in    
Sea Level Pressure  
Sea Level Pressure 30.16 in    
Wind  
Wind Speed 12 mph (SSE)    
Max Wind Speed 20 mph    
Max Gust Speed 25 mph    
Visibility 10 miles    
Events      
T = Trace of Precipitation, MM = Missing Value Source: NWS Daily Summary

Daily Weather History Graph

Daily Weather History Graph

Search for Another Location

Airport or City:

Trip Planner

Search our weather history database for the weather conditions in past years. The results will help you decide how hot, cold, wet, or windy it might be!

Date:

Astronomy

May. 25, 2013 Rise Set
Actual Time 5:57 AM CDT 8:23 PM CDT
Civil Twilight 5:27 AM CDT 8:53 PM CDT
Nautical Twilight 4:51 AM CDT 9:30 PM CDT
Astronomical Twilight 4:10 AM CDT 10:11 PM CDT
Moon 9:12 PM CDT (5/25) 6:24 AM CDT (5/25)
Length of Visible Light 15h 25m
Length of Day
14h 25m
Full, 100% of the Moon is Illuminated
May 25
Full
May 31
Last Quarter
Jun 8
New
Jun 16
First Quarter
Jun 23
Full

Hourly Weather History & Observations

Time (CDT) Temp. Heat Index Dew Point Humidity Pressure Visibility Wind Dir Wind Speed Gust Speed Precip Events Conditions
12:52 AM 59.0 °F - 45.0 °F 60% 30.21 in 10.0 mi SSE 13.8 mph - N/A   Clear
1:52 AM 59.0 °F - 44.1 °F 58% 30.20 in 10.0 mi SSE 15.0 mph - N/A   Clear
2:52 AM 57.9 °F - 44.1 °F 60% 30.19 in 10.0 mi SSE 13.8 mph - N/A   Clear
3:52 AM 57.0 °F - 44.1 °F 62% 30.19 in 10.0 mi SSE 15.0 mph - N/A   Clear
4:52 AM 55.9 °F - 44.1 °F 64% 30.20 in 10.0 mi SSE 13.8 mph - N/A   Clear
5:52 AM 55.9 °F - 45.0 °F 67% 30.20 in 10.0 mi SSE 10.4 mph - N/A   Clear
6:52 AM 57.0 °F - 46.0 °F 67% 30.23 in 10.0 mi SSE 13.8 mph - N/A   Mostly Cloudy
7:52 AM 59.0 °F - 46.9 °F 64% 30.23 in 10.0 mi SSE 11.5 mph - 0.00 in   Mostly Cloudy
8:05 AM 59.0 °F - 48.0 °F 67% 30.24 in 10.0 mi SSE 13.8 mph - N/A   Mostly Cloudy
8:28 AM 60.1 °F - 48.0 °F 64% 30.23 in 10.0 mi SSE 13.8 mph - N/A   Overcast
8:52 AM 60.1 °F - 48.9 °F 67% 30.21 in 10.0 mi SSE 15.0 mph - N/A   Mostly Cloudy
9:52 AM 66.0 °F - 52.0 °F 60% 30.19 in 10.0 mi SSE 13.8 mph - N/A   Clear
10:52 AM 69.1 °F - 53.1 °F 57% 30.19 in 10.0 mi South 17.3 mph 25.3 mph N/A   Clear
11:52 AM 71.1 °F - 57.0 °F 61% 30.19 in 10.0 mi South 9.2 mph - N/A   Mostly Cloudy
12:52 PM 75.0 °F - 61.0 °F 62% 30.19 in 10.0 mi South 10.4 mph - N/A   Partly Cloudy
1:52 PM 75.0 °F - 61.0 °F 62% 30.18 in 10.0 mi South 11.5 mph - N/A   Clear
2:52 PM 77.0 °F - 62.1 °F 60% 30.16 in 10.0 mi SSE 11.5 mph - N/A   Clear
3:52 PM 79.0 °F - 63.0 °F 58% 30.14 in 10.0 mi South 13.8 mph 20.7 mph N/A   Clear
4:52 PM 79.0 °F - 63.0 °F 58% 30.11 in 10.0 mi South 10.4 mph - N/A   Clear
5:52 PM 80.1 °F 81.2 °F 62.1 °F 54% 30.09 in 10.0 mi South 11.5 mph - N/A   Clear
6:52 PM 78.1 °F - 63.0 °F 60% 30.08 in 10.0 mi SSE 10.4 mph - N/A   Clear
7:52 PM 75.0 °F - 62.1 °F 64% 30.06 in 10.0 mi SSE 11.5 mph - N/A   Clear
8:52 PM 73.0 °F - 62.1 °F 68% 30.06 in 10.0 mi SSE 11.5 mph - N/A   Clear
9:52 PM 72.0 °F - 62.1 °F 71% 30.06 in 10.0 mi SSE 11.5 mph - N/A   Clear
10:52 PM 70.0 °F - 61.0 °F 73% 30.10 in 10.0 mi SSE 11.5 mph - N/A   Clear
11:52 PM 69.1 °F - 61.0 °F 75% 30.10 in 10.0 mi SSE 9.2 mph - N/A   Clear